| time (UTC) | temp F | wind direction | speed knots | gust knots | rain 1hr in | rain 24hr in | rain mn in | humidity % | barometer mb |
| 20260510224542 | 67 | 306 | 0.0 | 0.0 | 0.00 | 0.00 | 0.00 | 80 | 1011.4 |
| 20260510224053 | 68 | 306 | 0.0 | 0.0 | 0.00 | 0.00 | 0.00 | 80 | 1011.4 |
| 20260510223551 | 68 | 306 | 0.0 | 0.0 | 0.00 | 0.00 | 0.00 | 79 | 1011.4 |
| 20260510223100 | 68 | 303 | 0.0 | 0.0 | 0.00 | 0.00 | 0.00 | 79 | 1011.6 |
| 20260510222557 | 68 | 302 | 0.0 | 1.7 | 0.00 | 0.00 | 0.00 | 80 | 1011.6 |
| 20260510222008 | 68 | 303 | 0.0 | 2.6 | 0.00 | 0.00 | 0.00 | 79 | 1011.4 |
| 20260510221517 | 69 | 303 | 0.0 | 2.6 | 0.00 | 0.00 | 0.00 | 78 | 1011.3 |
| 20260510221028 | 69 | 291 | 0.0 | 4.3 | 0.00 | 0.00 | 0.00 | 77 | 1011.4 |
| 20260510220541 | 70 | 302 | 0.0 | 4.3 | 0.00 | 0.00 | 0.00 | 74 | 1011.5 |
| 20260510220053 | 71 | 309 | 0.0 | 2.6 | 0.00 | 0.00 | 0.00 | 72 | 1011.8 |
| 20260510215604 | 71 | 308 | 0.0 | 2.6 | 0.00 | 0.00 | 0.00 | 70 | 1011.8 |
| 20260510215015 | 72 | 302 | 0.0 | 2.6 | 0.00 | 0.00 | 0.00 | 68 | 1011.6 |
| 20260510214524 | 73 | 299 | 0.0 | 2.6 | 0.00 | 0.00 | 0.00 | 66 | 1011.3 |
| 20260510214037 | 74 | 303 | 0.0 | 2.6 | 0.00 | 0.00 | 0.00 | 63 | 1011.3 |
| 20260510213535 | 75 | 280 | 0.0 | 1.7 | 0.00 | 0.00 | 0.00 | 60 | 1011.2 |
| 20260510213048 | 76 | 261 | 0.0 | 1.7 | 0.00 | 0.00 | 0.00 | 60 | 1011.0 |
| 20260510212558 | 76 | 252 | 0.0 | 1.7 | 0.00 | 0.00 | 0.00 | 59 | 1010.9 |
| 20260510212055 | 76 | 253 | 0.0 | 0.0 | 0.00 | 0.00 | 0.00 | 60 | 1010.7 |
| 20260510211506 | 76 | 253 | 0.0 | 1.7 | 0.00 | 0.00 | 0.00 | 59 | 1010.7 |
| 20260510211105 | 76 | 253 | 0.0 | 1.7 | 0.00 | 0.00 | 0.00 | 59 | 1010.5 |
| 20260510210601 | 76 | 253 | 0.0 | 0.0 | 0.00 | 0.00 | 0.00 | 60 | 1010.5 |
| 20260510210008 | 76 | 254 | 0.0 | 0.0 | 0.00 | 0.00 | 0.00 | 59 | 1010.5 |
| 20260510205503 | 76 | 251 | 0.0 | 0.9 | 0.00 | 0.00 | 0.00 | 59 | 1010.4 |
| 20260510205014 | 76 | 251 | 0.0 | 0.0 | 0.00 | 0.00 | 0.00 | 60 | 1010.4 |
| 20260510204541 | 75 | 251 | 0.0 | 0.0 | 0.00 | 0.00 | 0.00 | 59 | 1010.3 |
| 20260510204035 | 75 | 251 | 0.0 | 0.9 | 0.00 | 0.00 | 0.00 | 60 | 1010.4 |
| 20260510203546 | 75 | 251 | 0.0 | 0.9 | 0.00 | 0.00 | 0.00 | 59 | 1010.5 |
| 20260510203058 | 75 | 262 | 0.0 | 0.0 | 0.00 | 0.00 | 0.00 | 60 | 1010.5 |
| 20260510202507 | 75 | 263 | 0.0 | 0.9 | 0.00 | 0.00 | 0.00 | 60 | 1010.5 |
| 20260510202017 | 74 | 263 | 0.0 | 1.7 | 0.00 | 0.00 | 0.00 | 59 | 1010.5 |
| 20260510201525 | 74 | 263 | 0.0 | 5.2 | 0.00 | 0.00 | 0.00 | 60 | 1010.6 |
| 20260510201039 | 74 | 263 | 0.0 | 5.2 | 0.00 | 0.00 | 0.00 | 60 | 1010.7 |
| 20260510200548 | 74 | 267 | 0.0 | 2.6 | 0.00 | 0.00 | 0.00 | 60 | 1010.7 |
| 20260510200045 | 74 | 268 | 0.0 | 2.6 | 0.00 | 0.00 | 0.00 | 60 | 1010.7 |
| 20260510195555 | 74 | 268 | 0.0 | 3.5 | 0.00 | 0.00 | 0.00 | 58 | 1010.8 |
| 20260510195004 | 75 | 260 | 0.0 | 3.5 | 0.00 | 0.00 | 0.00 | 58 | 1010.8 |
| 20260510194515 | 76 | 280 | 0.0 | 3.5 | 0.00 | 0.00 | 0.00 | 56 | 1010.9 |
| 20260510194024 | 76 | 250 | 0.9 | 3.5 | 0.00 | 0.00 | 0.00 | 56 | 1010.9 |
| 20260510193537 | 77 | 232 | 0.0 | 2.6 | 0.00 | 0.00 | 0.00 | 53 | 1010.8 |
| 20260510193039 | 77 | 271 | 0.0 | 4.3 | 0.00 | 0.00 | 0.00 | 53 | 1010.9 |
| 20260510192538 | 77 | 246 | 0.0 | 4.3 | 0.00 | 0.00 | 0.00 | 52 | 1011.0 |
| 20260510192052 | 77 | 206 | 0.0 | 3.5 | 0.00 | 0.00 | 0.00 | 51 | 1011.0 |
| 20260510191506 | 77 | 236 | 0.9 | 3.5 | 0.00 | 0.00 | 0.00 | 51 | 1011.0 |
| 20260510191022 | 77 | 242 | 0.0 | 2.6 | 0.00 | 0.00 | 0.00 | 50 | 1011.0 |
| 20260510190538 | 77 | 277 | 0.0 | 3.5 | 0.00 | 0.00 | 0.00 | 50 | 1011.0 |
| 20260510190057 | 77 | 252 | 0.9 | 3.5 | 0.00 | 0.00 | 0.00 | 50 | 1011.0 |
| 20260510185555 | 78 | 195 | 0.9 | 9.6 | 0.00 | 0.00 | 0.00 | 48 | 1011.0 |
| 20260510185006 | 78 | 231 | 0.0 | 4.3 | 0.00 | 0.00 | 0.00 | 49 | 1010.9 |
| 20260510184522 | 78 | 249 | 0.9 | 5.2 | 0.00 | 0.00 | 0.00 | 49 | 1010.8 |
| 20260510184041 | 79 | 242 | 0.9 | 5.2 | 0.00 | 0.00 | 0.00 | 47 | 1010.9 |
| 20260510183554 | 80 | 256 | 0.9 | 3.5 | 0.00 | 0.00 | 0.00 | 46 | 1010.8 |
| 20260510183008 | 80 | 201 | 0.0 | 6.1 | 0.00 | 0.00 | 0.00 | 48 | 1010.8 |
| 20260510182523 | 81 | 150 | 1.7 | 5.2 | 0.00 | 0.00 | 0.00 | 47 | 1010.9 |
| 20260510182039 | 82 | 188 | 0.9 | 4.3 | 0.00 | 0.00 | 0.00 | 46 | 1010.9 |
| 20260510181556 | 81 | 187 | 0.9 | 3.5 | 0.00 | 0.00 | 0.00 | 49 | 1010.8 |
| 20260510181056 | 80 | 157 | 0.9 | 3.5 | 0.00 | 0.00 | 0.00 | 49 | 1010.9 |
| 20260510180508 | 79 | 265 | 0.0 | 5.2 | 0.00 | 0.00 | 0.00 | 48 | 1010.9 |
| 20260510180022 | 79 | 225 | 0.0 | 5.2 | 0.00 | 0.00 | 0.00 | 48 | 1011.0 |
| 20260510175536 | 80 | 229 | 0.9 | 3.5 | 0.00 | 0.00 | 0.00 | 49 | 1011.0 |
| 20260510175052 | 79 | 208 | 0.0 | 3.5 | 0.00 | 0.00 | 0.00 | 47 | 1011.0 |
| 20260510174553 | 79 | 204 | 0.0 | 3.5 | 0.00 | 0.00 | 0.00 | 50 | 1010.9 |
| 20260510174004 | 78 | 229 | 0.0 | 2.6 | 0.00 | 0.00 | 0.00 | 51 | 1010.8 |
| 20260510173519 | 78 | 283 | 0.0 | 5.2 | 0.00 | 0.00 | 0.00 | 51 | 1010.8 |
| 20260510173035 | 78 | 263 | 0.0 | 5.2 | 0.00 | 0.00 | 0.00 | 52 | 1010.9 |
| 20260510172551 | 77 | 232 | 0.0 | 4.3 | 0.00 | 0.00 | 0.00 | 52 | 1011.0 |
| 20260510172051 | 77 | 174 | 0.0 | 3.5 | 0.00 | 0.00 | 0.00 | 55 | 1011.0 |
| 20260510171556 | 76 | 209 | 0.0 | 3.5 | 0.00 | 0.00 | 0.00 | 54 | 1011.0 |
| 20260510171006 | 77 | 254 | 0.0 | 3.5 | 0.00 | 0.00 | 0.00 | 54 | 1011.2 |
| 20260510170522 | 76 | 306 | 0.0 | 5.2 | 0.00 | 0.00 | 0.00 | 54 | 1011.2 |
| 20260510170043 | 76 | 288 | 0.0 | 5.2 | 0.00 | 0.00 | 0.00 | 54 | 1011.1 |
| 20260510165555 | 77 | 192 | 0.9 | 3.5 | 0.00 | 0.00 | 0.00 | 53 | 1011.1 |
| 20260510165009 | 78 | 236 | 0.0 | 0.9 | 0.00 | 0.00 | 0.00 | 57 | 1011.2 |
| 20260510164513 | 76 | 141 | 0.0 | 0.9 | 0.00 | 0.00 | 0.00 | 59 | 1011.1 |
| 20260510164021 | 75 | 223 | 0.0 | 0.9 | 0.00 | 0.00 | 0.00 | 60 | 1011.2 |
| 20260510163537 | 75 | 221 | 0.0 | 0.9 | 0.00 | 0.00 | 0.00 | 61 | 1011.2 |
| 20260510163057 | 74 | 218 | 0.0 | 0.9 | 0.00 | 0.00 | 0.00 | 60 | 1011.2 |
| 20260510162555 | 75 | 233 | 0.0 | 2.6 | 0.00 | 0.00 | 0.00 | 60 | 1011.3 |
| 20260510162055 | 74 | 233 | 0.0 | 2.6 | 0.00 | 0.00 | 0.00 | 61 | 1011.3 |
| 20260510161510 | 74 | 150 | 0.0 | 1.7 | 0.00 | 0.00 | 0.00 | 63 | 1011.2 |
| 20260510161026 | 73 | 144 | 0.0 | 1.7 | 0.00 | 0.00 | 0.00 | 65 | 1011.3 |
| 20260510160540 | 73 | 140 | 0.0 | 1.7 | 0.00 | 0.00 | 0.00 | 66 | 1011.4 |
| 20260510160054 | 72 | 246 | 0.0 | 0.9 | 0.00 | 0.00 | 0.00 | 68 | 1011.5 |
| 20260510155555 | 72 | 221 | 0.0 | 1.7 | 0.00 | 0.00 | 0.00 | 68 | 1011.6 |
| 20260510155057 | 71 | 219 | 0.0 | 1.7 | 0.00 | 0.00 | 0.00 | 68 | 1011.7 |
| 20260510154509 | 71 | 231 | 0.0 | 3.5 | 0.00 | 0.00 | 0.00 | 73 | 1011.8 |
| 20260510154026 | 70 | 231 | 0.0 | 3.5 | 0.00 | 0.00 | 0.00 | 72 | 1011.9 |
| 20260510153538 | 70 | 338 | 0.0 | 2.6 | 0.00 | 0.00 | 0.00 | 72 | 1011.8 |
| 20260510153054 | 70 | 338 | 0.0 | 1.7 | 0.00 | 0.00 | 0.00 | 74 | 1011.8 |
| 20260510152556 | 69 | 305 | 0.0 | 2.6 | 0.00 | 0.00 | 0.00 | 74 | 1011.8 |
| 20260510152009 | 69 | 279 | 0.0 | 0.9 | 0.00 | 0.00 | 0.00 | 76 | 1011.8 |
| 20260510151523 | 69 | 231 | 0.0 | 1.7 | 0.00 | 0.00 | 0.00 | 77 | 1011.8 |
| 20260510151040 | 68 | 232 | 0.0 | 1.7 | 0.00 | 0.00 | 0.00 | 78 | 1011.8 |
| 20260510150556 | 67 | 231 | 0.0 | 0.0 | 0.00 | 0.00 | 0.00 | 81 | 1011.8 |
| 20260510150008 | 66 | 231 | 0.0 | 0.0 | 0.00 | 0.00 | 0.00 | 81 | 1011.8 |
| 20260510145526 | 65 | 231 | 0.0 | 0.0 | 0.00 | 0.00 | 0.00 | 82 | 1011.9 |
| 20260510145041 | 64 | 231 | 0.0 | 0.0 | 0.00 | 0.00 | 0.00 | 85 | 1011.8 |
| 20260510144608 | 64 | 231 | 0.0 | 0.0 | 0.00 | 0.00 | 0.00 | 87 | 1011.9 |
| 20260510144059 | 63 | 231 | 0.0 | 0.0 | 0.00 | 0.00 | 0.00 | 90 | 1012.0 |
| 20260510143601 | 62 | 231 | 0.0 | 0.9 | 0.00 | 0.00 | 0.00 | 91 | 1011.9 |
| 20260510143013 | 61 | 231 | 0.0 | 0.9 | 0.00 | 0.00 | 0.00 | 93 | 1012.0 |
| 20260510142530 | 60 | 305 | 0.0 | 0.9 | 0.00 | 0.00 | 0.00 | 95 | 1011.9 |
| 20260510142044 | 60 | 331 | 0.0 | 0.0 | 0.00 | 0.00 | 0.00 | 97 | 1012.0 |
| 20260510141545 | 59 | 331 | 0.0 | 0.0 | 0.00 | 0.00 | 0.00 | 97 | 1012.1 |
| 20260510141046 | 58 | 305 | 0.0 | 0.0 | 0.00 | 0.00 | 0.00 | 97 | 1012.0 |
| 20260510140558 | 57 | 306 | 0.0 | 0.0 | 0.00 | 0.00 | 0.00 | 98 | 1012.0 |
| 20260510140011 | 57 | 306 | 0.0 | 0.9 | 0.00 | 0.00 | 0.00 | 97 | 1011.9 |
| 20260510135523 | 57 | 306 | 0.0 | 0.9 | 0.00 | 0.00 | 0.00 | 98 | 1011.9 |
| 20260510135040 | 56 | 306 | 0.0 | 0.9 | 0.00 | 0.00 | 0.00 | 98 | 1011.9 |
| 20260510134604 | 56 | 306 | 0.0 | 0.9 | 0.00 | 0.00 | 0.00 | 98 | 1011.9 |
| 20260510134057 | 56 | 306 | 0.0 | 0.0 | 0.00 | 0.00 | 0.00 | 98 | 1011.9 |
| 20260510133511 | 55 | 306 | 0.0 | 0.0 | 0.00 | 0.00 | 0.00 | 97 | 1012.0 |
| 20260510133027 | 55 | 306 | 0.0 | 0.0 | 0.00 | 0.00 | 0.00 | 98 | 1012.1 |
| 20260510132543 | 55 | 306 | 0.0 | 0.0 | 0.00 | 0.00 | 0.00 | 97 | 1012.1 |
| 20260510132059 | 54 | 306 | 0.0 | 0.9 | 0.00 | 0.00 | 0.00 | 97 | 1012.1 |
| 20260510131519 | 54 | 306 | 0.0 | 0.9 | 0.00 | 0.00 | 0.00 | 97 | 1012.1 |
| 20260510131026 | 54 | 306 | 0.0 | 0.0 | 0.00 | 0.00 | 0.00 | 98 | 1012.1 |
| 20260510130528 | 54 | 306 | 0.0 | 0.0 | 0.00 | 0.00 | 0.00 | 97 | 1012.0 |
| 20260510130042 | 53 | 305 | 0.0 | 0.0 | 0.00 | 0.00 | 0.00 | 97 | 1011.9 |
| 20260510125557 | 53 | 306 | 0.0 | 0.0 | 0.00 | 0.00 | 0.00 | 97 | 1011.9 |
| 20260510125012 | 53 | 306 | 0.0 | 0.9 | 0.00 | 0.00 | 0.00 | 97 | 1011.9 |
| 20260510124528 | 53 | 306 | 0.0 | 0.0 | 0.00 | 0.00 | 0.00 | 97 | 1011.9 |
| 20260510124044 | 53 | 330 | 0.0 | 2.6 | 0.00 | 0.00 | 0.00 | 97 | 1011.7 |
| 20260510123559 | 53 | 329 | 0.0 | 2.6 | 0.00 | 0.00 | 0.00 | 97 | 1011.8 |
| 20260510123101 | 53 | 23 | 0.0 | 0.0 | 0.00 | 0.00 | 0.00 | 97 | 1011.8 |
| 20260510122603 | 53 | 23 | 0.0 | 0.0 | 0.00 | 0.00 | 0.00 | 97 | 1011.6 |
| 20260510122102 | 52 | 23 | 0.0 | 0.0 | 0.00 | 0.00 | 0.00 | 97 | 1011.5 |
| 20260510121515 | 52 | 23 | 0.0 | 0.0 | 0.00 | 0.00 | 0.00 | 97 | 1011.6 |
| 20260510121034 | 53 | 23 | 0.0 | 0.9 | 0.00 | 0.00 | 0.00 | 97 | 1011.6 |
| 20260510120551 | 52 | 23 | 0.0 | 0.9 | 0.00 | 0.00 | 0.00 | 97 | 1011.5 |
| 20260510120103 | 52 | 23 | 0.0 | 0.9 | 0.00 | 0.00 | 0.00 | 97 | 1011.4 |
| 20260510115503 | 52 | 23 | 0.0 | 0.0 | 0.00 | 0.00 | 0.00 | 97 | 1011.5 |
| 20260510115002 | 52 | 22 | 0.0 | 0.9 | 0.00 | 0.00 | 0.00 | 97 | 1011.3 |
| 20260510114516 | 52 | 23 | 0.0 | 0.9 | 0.00 | 0.00 | 0.00 | 97 | 1011.3 |
| 20260510114034 | 52 | 23 | 0.0 | 0.9 | 0.00 | 0.00 | 0.00 | 97 | 1011.2 |
| 20260510113548 | 52 | 23 | 0.0 | 0.0 | 0.00 | 0.00 | 0.00 | 96 | 1011.2 |
| 20260510113054 | 52 | 23 | 0.0 | 0.9 | 0.00 | 0.00 | 0.00 | 97 | 1011.2 |
| 20260510112548 | 52 | 23 | 0.0 | 0.0 | 0.00 | 0.00 | 0.00 | 97 | 1011.2 |
| 20260510112001 | 52 | 23 | 0.0 | 0.0 | 0.00 | 0.00 | 0.00 | 96 | 1010.9 |
| 20260510111516 | 52 | 22 | 0.0 | 0.0 | 0.00 | 0.00 | 0.00 | 96 | 1010.8 |
| 20260510111030 | 52 | 23 | 0.0 | 0.0 | 0.00 | 0.00 | 0.00 | 97 | 1010.8 |
| 20260510110548 | 52 | 23 | 0.0 | 0.0 | 0.00 | 0.00 | 0.00 | 97 | 1010.9 |
| 20260510110101 | 52 | 23 | 0.0 | 0.0 | 0.00 | 0.00 | 0.00 | 97 | 1010.7 |
| 20260510105603 | 52 | 23 | 0.0 | 0.0 | 0.00 | 0.00 | 0.00 | 97 | 1010.6 |
| 20260510105102 | 52 | 23 | 0.0 | 0.0 | 0.00 | 0.00 | 0.00 | 97 | 1010.5 |
| 20260510104514 | 51 | 23 | 0.0 | 0.0 | 0.00 | 0.00 | 0.00 | 96 | 1010.5 |
| 20260510104029 | 51 | 23 | 0.0 | 0.0 | 0.00 | 0.00 | 0.00 | 96 | 1010.5 |
| 20260510103545 | 51 | 23 | 0.0 | 0.0 | 0.00 | 0.00 | 0.00 | 96 | 1010.5 |
| 20260510103101 | 51 | 23 | 0.0 | 0.0 | 0.00 | 0.00 | 0.00 | 96 | 1010.4 |
| 20260510102603 | 51 | 23 | 0.0 | 0.0 | 0.00 | 0.00 | 0.00 | 97 | 1010.5 |
| 20260510102103 | 51 | 23 | 0.0 | 0.0 | 0.00 | 0.00 | 0.00 | 97 | 1010.6 |
| 20260510101514 | 51 | 23 | 0.0 | 0.0 | 0.00 | 0.00 | 0.00 | 96 | 1010.7 |
| 20260510101030 | 51 | 23 | 0.0 | 0.0 | 0.00 | 0.00 | 0.00 | 96 | 1010.7 |
| 20260510100548 | 51 | 23 | 0.0 | 0.0 | 0.00 | 0.00 | 0.00 | 96 | 1010.6 |
| 20260510100048 | 50 | 23 | 0.0 | 0.0 | 0.00 | 0.00 | 0.00 | 96 | 1010.4 |
| 20260510095548 | 50 | 23 | 0.0 | 0.0 | 0.00 | 0.00 | 0.00 | 96 | 1010.5 |
| 20260510095048 | 50 | 23 | 0.0 | 0.0 | 0.00 | 0.00 | 0.00 | 96 | 1010.4 |
| 20260510094551 | 50 | 23 | 0.0 | 0.0 | 0.00 | 0.00 | 0.00 | 96 | 1010.4 |
| 20260510094051 | 50 | 23 | 0.0 | 1.7 | 0.00 | 0.00 | 0.00 | 96 | 1010.3 |
| 20260510093505 | 50 | 21 | 0.0 | 1.7 | 0.00 | 0.00 | 0.00 | 96 | 1010.3 |
| 20260510093026 | 50 | 21 | 0.0 | 0.9 | 0.00 | 0.00 | 0.00 | 96 | 1010.1 |
| 20260510092535 | 50 | 21 | 0.0 | 0.9 | 0.00 | 0.00 | 0.00 | 96 | 1010.0 |
| 20260510092050 | 49 | 21 | 0.0 | 0.0 | 0.00 | 0.00 | 0.00 | 96 | 1009.9 |
| 20260510091554 | 49 | 21 | 0.0 | 0.0 | 0.00 | 0.00 | 0.00 | 96 | 1009.7 |
| 20260510091054 | 49 | 21 | 0.0 | 0.0 | 0.00 | 0.00 | 0.00 | 96 | 1009.6 |
| 20260510090508 | 49 | 21 | 0.0 | 0.0 | 0.00 | 0.00 | 0.00 | 96 | 1009.5 |
| 20260510090027 | 49 | 21 | 0.0 | 0.0 | 0.00 | 0.00 | 0.00 | 96 | 1009.6 |
| 20260510085538 | 49 | 21 | 0.0 | 0.0 | 0.00 | 0.00 | 0.00 | 96 | 1009.6 |
| 20260510085057 | 49 | 21 | 0.0 | 0.0 | 0.00 | 0.00 | 0.00 | 96 | 1009.6 |
| 20260510084554 | 49 | 21 | 0.0 | 0.0 | 0.00 | 0.00 | 0.00 | 96 | 1009.6 |
| 20260510084054 | 49 | 21 | 0.0 | 0.0 | 0.00 | 0.00 | 0.00 | 96 | 1009.7 |
| 20260510083508 | 48 | 21 | 0.0 | 0.0 | 0.00 | 0.00 | 0.00 | 96 | 1009.6 |
| 20260510083022 | 48 | 21 | 0.0 | 0.0 | 0.00 | 0.00 | 0.00 | 96 | 1009.6 |
| 20260510082538 | 48 | 21 | 0.0 | 0.9 | 0.00 | 0.00 | 0.00 | 96 | 1009.6 |
| 20260510082055 | 48 | 21 | 0.0 | 0.9 | 0.00 | 0.00 | 0.00 | 96 | 1009.5 |
| 20260510081553 | 48 | 21 | 0.0 | 0.0 | 0.00 | 0.00 | 0.00 | 95 | 1009.5 |
| 20260510081007 | 48 | 21 | 0.0 | 0.0 | 0.00 | 0.00 | 0.00 | 95 | 1009.5 |
| 20260510080523 | 47 | 21 | 0.0 | 0.0 | 0.00 | 0.00 | 0.00 | 96 | 1009.4 |
| 20260510080041 | 47 | 21 | 0.0 | 0.0 | 0.00 | 0.00 | 0.00 | 96 | 1009.4 |
| 20260510075557 | 47 | 21 | 0.0 | 0.0 | 0.00 | 0.00 | 0.00 | 95 | 1009.3 |
| 20260510075007 | 47 | 21 | 0.0 | 0.0 | 0.00 | 0.00 | 0.00 | 95 | 1009.2 |
| 20260510074524 | 47 | 21 | 0.0 | 0.0 | 0.00 | 0.00 | 0.00 | 95 | 1009.1 |
| 20260510074040 | 47 | 21 | 0.0 | 0.0 | 0.00 | 0.00 | 0.00 | 95 | 1009.0 |
| 20260510073557 | 47 | 21 | 0.0 | 0.0 | 0.00 | 0.00 | 0.00 | 95 | 1009.0 |
| 20260510073116 | 47 | 21 | 0.0 | 0.0 | 0.00 | 0.00 | 0.00 | 95 | 1008.9 |
| 20260510072600 | 47 | 21 | 0.0 | 0.0 | 0.00 | 0.00 | 0.00 | 95 | 1008.8 |
| 20260510072017 | 47 | 21 | 0.0 | 0.0 | 0.00 | 0.00 | 0.00 | 95 | 1008.8 |
| 20260510071529 | 47 | 21 | 0.0 | 0.0 | 0.00 | 0.00 | 0.00 | 95 | 1008.9 |
| 20260510071044 | 47 | 21 | 0.0 | 0.0 | 0.00 | 0.00 | 0.00 | 95 | 1009.0 |
| 20260510070600 | 47 | 21 | 0.0 | 0.0 | 0.00 | 0.00 | 0.00 | 95 | 1008.9 |
| 20260510070012 | 48 | 21 | 0.0 | 0.0 | 0.00 | 0.00 | 0.00 | 95 | 1009.0 |
| 20260510065529 | 48 | 21 | 0.0 | 0.0 | 0.00 | 0.00 | 0.00 | 95 | 1009.0 |
| 20260510065029 | 48 | 21 | 0.0 | 0.0 | 0.00 | 0.00 | 0.00 | 95 | 1009.0 |
| 20260510064604 | 48 | 21 | 0.0 | 0.0 | 0.00 | 0.00 | 0.00 | 95 | 1009.0 |
| 20260510064100 | 48 | 21 | 0.0 | 0.0 | 0.00 | 0.00 | 0.00 | 95 | 1009.1 |
| 20260510063514 | 48 | 21 | 0.0 | 0.0 | 0.00 | 0.00 | 0.00 | 95 | 1009.0 |
| 20260510063029 | 48 | 21 | 0.0 | 0.0 | 0.00 | 0.00 | 0.00 | 95 | 1009.1 |
| 20260510062545 | 48 | 21 | 0.0 | 0.0 | 0.00 | 0.00 | 0.00 | 95 | 1009.1 |
| 20260510062048 | 48 | 21 | 0.0 | 0.0 | 0.00 | 0.00 | 0.00 | 95 | 1009.1 |
| 20260510061549 | 48 | 21 | 0.0 | 0.0 | 0.00 | 0.00 | 0.00 | 95 | 1009.1 |
| 20260510061002 | 48 | 21 | 0.0 | 0.0 | 0.00 | 0.00 | 0.00 | 95 | 1009.1 |
| 20260510060517 | 48 | 21 | 0.0 | 0.0 | 0.00 | 0.00 | 0.00 | 95 | 1009.1 |
| 20260510060037 | 48 | 21 | 0.0 | 0.0 | 0.00 | 0.00 | 0.00 | 95 | 1009.2 |
| 20260510055550 | 48 | 21 | 0.0 | 0.0 | 0.00 | 0.00 | 0.00 | 95 | 1009.2 |
| 20260510055003 | 49 | 21 | 0.0 | 0.0 | 0.00 | 0.00 | 0.00 | 94 | 1009.2 |
| 20260510054505 | 49 | 21 | 0.0 | 0.0 | 0.00 | 0.00 | 0.00 | 94 | 1009.3 |
| 20260510054022 | 49 | 21 | 0.0 | 0.0 | 0.00 | 0.00 | 0.00 | 95 | 1009.3 |
| 20260510053536 | 49 | 21 | 0.0 | 0.0 | 0.00 | 0.00 | 0.00 | 94 | 1009.4 |
| 20260510053053 | 49 | 21 | 0.0 | 0.0 | 0.00 | 0.00 | 0.00 | 94 | 1009.4 |
| 20260510052504 | 49 | 21 | 0.0 | 0.0 | 0.00 | 0.00 | 0.00 | 94 | 1009.4 |
| 20260510052019 | 49 | 21 | 0.0 | 0.0 | 0.00 | 0.00 | 0.00 | 94 | 1009.4 |
| 20260510051548 | 49 | 21 | 0.0 | 0.0 | 0.00 | 0.00 | 0.00 | 94 | 1009.4 |
| 20260510051051 | 49 | 21 | 0.0 | 0.0 | 0.00 | 0.00 | 0.00 | 94 | 1009.4 |
| 20260510050505 | 49 | 21 | 0.0 | 0.0 | 0.00 | 0.00 | 0.00 | 94 | 1009.5 |
| 20260510050004 | 49 | 21 | 0.0 | 0.0 | 0.00 | 0.00 | 0.00 | 94 | 1009.6 |
| 20260510045519 | 50 | 21 | 0.0 | 0.0 | 0.00 | 0.00 | 0.00 | 94 | 1009.6 |
| 20260510045034 | 50 | 21 | 0.0 | 0.0 | 0.00 | 0.00 | 0.00 | 94 | 1009.6 |
| 20260510044550 | 50 | 21 | 0.0 | 0.0 | 0.00 | 0.00 | 0.00 | 94 | 1009.6 |
| 20260510044003 | 50 | 21 | 0.0 | 0.0 | 0.00 | 0.00 | 0.00 | 94 | 1009.7 |
| 20260510043517 | 50 | 21 | 0.0 | 0.0 | 0.00 | 0.00 | 0.00 | 94 | 1009.7 |
| 20260510043033 | 50 | 21 | 0.0 | 0.0 | 0.00 | 0.00 | 0.00 | 94 | 1009.7 |
| 20260510042549 | 50 | 21 | 0.0 | 0.0 | 0.00 | 0.00 | 0.00 | 94 | 1009.7 |
| 20260510042003 | 50 | 21 | 0.0 | 0.0 | 0.00 | 0.00 | 0.00 | 94 | 1009.7 |
| 20260510041504 | 51 | 21 | 0.0 | 0.0 | 0.00 | 0.00 | 0.00 | 94 | 1009.7 |
| 20260510041018 | 51 | 21 | 0.0 | 0.0 | 0.00 | 0.00 | 0.00 | 94 | 1009.7 |
| 20260510040534 | 51 | 21 | 0.0 | 0.0 | 0.00 | 0.00 | 0.00 | 94 | 1009.7 |
| 20260510040050 | 51 | 21 | 0.0 | 0.0 | 0.00 | 0.00 | 0.00 | 94 | 1009.8 |
| 20260510035501 | 51 | 21 | 0.0 | 0.0 | 0.00 | 0.00 | 0.00 | 94 | 1009.7 |
| 20260510035020 | 51 | 21 | 0.0 | 0.0 | 0.00 | 0.00 | 0.00 | 94 | 1009.7 |
| 20260510034534 | 51 | 21 | 0.0 | 0.0 | 0.00 | 0.00 | 0.00 | 94 | 1009.7 |
| 20260510034050 | 51 | 21 | 0.0 | 0.0 | 0.00 | 0.00 | 0.00 | 94 | 1009.6 |
| 20260510033504 | 51 | 21 | 0.0 | 0.0 | 0.00 | 0.00 | 0.00 | 94 | 1009.4 |
| 20260510033004 | 51 | 21 | 0.0 | 0.0 | 0.00 | 0.00 | 0.00 | 94 | 1009.4 |
| 20260510032519 | 51 | 21 | 0.0 | 0.0 | 0.00 | 0.00 | 0.00 | 93 | 1009.3 |
| 20260510032034 | 51 | 21 | 0.0 | 0.0 | 0.00 | 0.00 | 0.00 | 93 | 1009.3 |
| 20260510031551 | 51 | 21 | 0.0 | 0.0 | 0.00 | 0.00 | 0.00 | 93 | 1009.3 |
| 20260510031004 | 51 | 21 | 0.0 | 0.0 | 0.00 | 0.00 | 0.00 | 93 | 1009.1 |
| 20260510030518 | 51 | 21 | 0.0 | 0.0 | 0.00 | 0.00 | 0.00 | 93 | 1009.1 |
| 20260510030033 | 51 | 21 | 0.0 | 0.0 | 0.00 | 0.00 | 0.00 | 93 | 1009.1 |
| 20260510025550 | 52 | 21 | 0.0 | 0.0 | 0.00 | 0.00 | 0.00 | 93 | 1009.2 |
| 20260510025005 | 52 | 21 | 0.0 | 0.0 | 0.00 | 0.00 | 0.00 | 93 | 1009.2 |
| 20260510024504 | 52 | 21 | 0.0 | 0.0 | 0.00 | 0.00 | 0.00 | 93 | 1009.3 |
| 20260510024020 | 52 | 21 | 0.0 | 0.0 | 0.00 | 0.00 | 0.00 | 93 | 1009.2 |
| 20260510023534 | 52 | 21 | 0.0 | 0.0 | 0.00 | 0.00 | 0.00 | 93 | 1009.2 |
| 20260510023050 | 52 | 21 | 0.0 | 0.0 | 0.00 | 0.00 | 0.00 | 93 | 1009.2 |
| 20260510022502 | 52 | 21 | 0.0 | 0.0 | 0.00 | 0.00 | 0.00 | 92 | 1009.3 |
| 20260510022020 | 52 | 21 | 0.0 | 0.0 | 0.00 | 0.00 | 0.00 | 92 | 1009.2 |
| 20260510021536 | 52 | 21 | 0.0 | 0.0 | 0.00 | 0.00 | 0.00 | 92 | 1009.2 |
| 20260510021052 | 53 | 21 | 0.0 | 0.0 | 0.00 | 0.00 | 0.00 | 92 | 1009.1 |
| 20260510020554 | 53 | 21 | 0.0 | 0.0 | 0.00 | 0.00 | 0.00 | 92 | 1009.1 |
| 20260510020055 | 53 | 21 | 0.0 | 0.0 | 0.00 | 0.00 | 0.00 | 92 | 1009.2 |
| 20260510015508 | 53 | 21 | 0.0 | 0.0 | 0.00 | 0.00 | 0.00 | 92 | 1009.2 |
| 20260510015025 | 53 | 21 | 0.0 | 0.0 | 0.00 | 0.00 | 0.00 | 92 | 1009.2 |
| 20260510014543 | 53 | 21 | 0.0 | 0.0 | 0.00 | 0.00 | 0.00 | 92 | 1009.2 |
| 20260510014058 | 53 | 21 | 0.0 | 0.0 | 0.00 | 0.00 | 0.00 | 92 | 1009.1 |
| 20260510013605 | 54 | 21 | 0.0 | 0.0 | 0.00 | 0.00 | 0.00 | 92 | 1009.2 |
| 20260510013135 | 54 | 21 | 0.0 | 0.0 | 0.00 | 0.00 | 0.00 | 91 | 1009.1 |
| 20260510012601 | 54 | 21 | 0.0 | 0.0 | 0.00 | 0.00 | 0.00 | 91 | 1009.1 |
| 20260510012014 | 54 | 21 | 0.0 | 0.0 | 0.00 | 0.00 | 0.00 | 91 | 1009.0 |
| 20260510011531 | 54 | 21 | 0.0 | 0.0 | 0.00 | 0.00 | 0.00 | 91 | 1009.0 |
| 20260510011048 | 55 | 21 | 0.0 | 0.0 | 0.00 | 0.00 | 0.00 | 91 | 1009.0 |
| 20260510010548 | 55 | 21 | 0.0 | 0.0 | 0.00 | 0.00 | 0.00 | 91 | 1009.0 |
| 20260510010051 | 55 | 21 | 0.0 | 0.0 | 0.00 | 0.00 | 0.00 | 91 | 1009.0 |
| 20260510005551 | 55 | 21 | 0.0 | 0.0 | 0.00 | 0.00 | 0.00 | 90 | 1008.9 |
| 20260510005008 | 55 | 21 | 0.0 | 0.0 | 0.00 | 0.00 | 0.00 | 90 | 1008.8 |
| 20260510004522 | 56 | 21 | 0.0 | 0.0 | 0.00 | 0.00 | 0.00 | 90 | 1008.9 |
| 20260510004038 | 56 | 21 | 0.0 | 0.0 | 0.00 | 0.00 | 0.00 | 89 | 1008.9 |
| 20260510003556 | 56 | 21 | 0.0 | 0.0 | 0.00 | 0.00 | 0.00 | 89 | 1008.8 |
| 20260510003105 | 56 | 21 | 0.0 | 0.0 | 0.00 | 0.00 | 0.00 | 89 | 1008.8 |
| 20260510002558 | 57 | 21 | 0.0 | 0.0 | 0.00 | 0.00 | 0.00 | 88 | 1008.9 |
| 20260510002008 | 57 | 21 | 0.0 | 0.0 | 0.00 | 0.00 | 0.00 | 87 | 1008.9 |
| 20260510001524 | 57 | 21 | 0.0 | 0.0 | 0.00 | 0.00 | 0.00 | 87 | 1008.8 |
| 20260510001039 | 58 | 21 | 0.0 | 0.0 | 0.00 | 0.00 | 0.00 | 87 | 1008.8 |
| 20260510000558 | 58 | 21 | 0.0 | 0.0 | 0.00 | 0.00 | 0.00 | 86 | 1008.8 |
| 20260510000123 | 58 | 21 | 0.0 | 0.0 | 0.00 | 0.00 | 0.00 | 86 | 1008.9 |
| 20260509235556 | 59 | 21 | 0.0 | 0.0 | 0.00 | 0.00 | 0.00 | 85 | 1008.8 |
| 20260509235010 | 59 | 21 | 0.0 | 0.0 | 0.00 | 0.00 | 0.00 | 84 | 1008.8 |
| 20260509234525 | 59 | 21 | 0.0 | 0.0 | 0.00 | 0.00 | 0.00 | 84 | 1008.7 |
| 20260509234042 | 60 | 21 | 0.0 | 0.0 | 0.00 | 0.00 | 0.00 | 84 | 1008.6 |
| 20260509233558 | 60 | 21 | 0.0 | 0.0 | 0.00 | 0.00 | 0.00 | 84 | 1008.6 |
| 20260509233013 | 60 | 21 | 0.0 | 0.0 | 0.00 | 0.00 | 0.00 | 84 | 1008.5 |
| 20260509232526 | 60 | 21 | 0.0 | 0.0 | 0.00 | 0.00 | 0.00 | 84 | 1008.3 |
| 20260509232041 | 60 | 21 | 0.0 | 0.0 | 0.00 | 0.00 | 0.00 | 84 | 1008.2 |
| 20260509231608 | 60 | 21 | 0.0 | 0.0 | 0.00 | 0.00 | 0.00 | 84 | 1008.2 |
| 20260509231057 | 60 | 21 | 0.0 | 0.0 | 0.00 | 0.00 | 0.00 | 85 | 1008.3 |
| 20260509230511 | 59 | 21 | 0.0 | 0.0 | 0.00 | 0.00 | 0.00 | 85 | 1008.4 |
| 20260509230026 | 60 | 21 | 0.0 | 0.0 | 0.00 | 0.00 | 0.00 | 85 | 1008.5 |
| 20260509225545 | 60 | 21 | 0.0 | 0.0 | 0.00 | 0.00 | 0.00 | 85 | 1008.6 |
| 20260509225058 | 60 | 21 | 0.0 | 0.0 | 0.00 | 0.00 | 0.00 | 84 | 1008.5 |